Regional Weather Roundup
Issued by NWS

Home | Current Version | Previous Version | Text Only | Print | Product List | Glossary On
Versions: 1 2 3 4 5 6 7 8 9 10 11 12 13 14 15 16 17 18 19 20 21 22 23 24 25 26 27 28 29 30 31 32 33 34 35 36 37 38 39 40 41 42 43 44 45 46 47 48 49 50
000
ASUS43 KLMK 310010
RWRKY
KENTUCKY REGIONAL WEATHER ROUNDUP
NATIONAL WEATHER SERVICE LOUISVILLE KY
800 PM EDT SAT JUL 30 2016

NOTE "FAIR" INDICATES FEW OR NO CLOUDS BELOW 12,000 FEET
WITH NO SIGNIFICANT WEATHER AND/OR OBSTRUCTIONS TO VISIBILITY.

KYZ001>023-026-027-061>063-070>075-310100-
WESTERN AND SOUTH CENTRAL KENTUCKY

CITY           SKY/WX    TMP DP  RH WIND       PRES   REMARKS
PADUCAH        CLOUDY    85  72  65 CALM      29.94F HX  91
HENDERSON      SUNNY     84  70  61 W3        29.94R
OWENSBORO      SUNNY     84  70  63 W6        29.95S
HOPKINSVILLE   SUNNY     84  72  67 W6        29.95S HX  90
BOWLING GREEN  MOCLDY    82  72  71 N7        29.96S
GLASGOW        PTCLDY    79  72  79 CALM      29.96S
$$

KYZ024-025-028>034-038-045-046-053-310100-
NORTH CENTRAL KENTUCKY

CITY           SKY/WX    TMP DP  RH WIND       PRES   REMARKS
LOUISVILLE/SDF CLOUDY    80  69  69 NW7       29.95F
LOUISVILLE/LOU CLOUDY    79  70  74 W5        29.96S
FORT KNOX      CLEAR     77  71  80 N6        29.95F
$$

KYZ035>037-039>044-047>052-055>060-089>105-310100-
NORTHEAST KENTUCKY

CITY           SKY/WX    TMP DP  RH WIND       PRES   REMARKS
LEXINGTON      PTCLDY    77  68  73 W3        29.97F
COVINGTON      MOCLDY    80  69  69 SW3       29.95F
FRANKFORT      MOCLDY    77  70  79 CALM      29.95F
$$

KYZ054-064>069-076>088-106>120-310100-
SOUTHEAST KENTUCKY

CITY           SKY/WX    TMP DP  RH WIND       PRES   REMARKS
JACKSON        MOCLDY    78  70  76 CALM      29.99S
LONDON         CLEAR     83  69  62 W8        29.99S
SOMERSET       MOCLDY    81  68  65 W3        29.99S
MIDDLESBORO    MOCLDY    77  73  86 CALM      30.00R
MONTICELLO     CLEAR    N/A N/A N/A W13       30.00S
$$




USA.gov is the U.S. government's official web portal to all federal, state and local government web resources and services.